Location: *
(60.1759°S, 155.0663°W)
Time: 23:59:52
(UTC+00:00)

ARIANE 5 R/B - Pass Details

Date: 17 September 2019
Orbit: 748 x 795 km, 98.6° (Epoch: 16 October)

Event Time Altitude Azimuth Distance (km) Brightness Sun altitude
Exits shadow 13:16:22 19° 240° (WSW) 1,793 4.2 -22.5°
Drops below altitude 10° 13:18:33 10° 217° (SW) 2,324 5.0 -22.3°
Sets 13:21:24 0° 201° (SSW) 3,263 6.0 -22.0°
